Flag for Germany Weather past 2 weeks in Friedrichshafen, Baden-Württemberg, Germany

Now
48 °F

Mostly cloudy.


Feels Like: 46 °F
Forecast: 37 / 50 °F
Wind: 6 mph from West

Location: Friedrichshafen Airport

Current Time: Oct 23, 2014 at 4:47:49 PM

Latest Report: Oct 23, 2014 at 3:50 PM


Visibility: N/A

Pressure: 30.24 "Hg

Humidity: 66%

Dew point: 37 °F

Location of FriedrichshafenLocation

Historic Weather in Friedrichshafen — Graph

°F

Friedrichshafen temperature yesterday

Maximum temperature yesterday: 46 °F (at 12:02 AM)
Minimum temperature yesterday: 39 °F (at 4:20 AM)
Average temperature yesterday: 43 °F

Past Weeks' High & Low Weather Summary

 TemperatureHumidityPressure
High79 °F (Oct 9, 2:20 PM)94% (Oct 9, 4:20 AM)30.30 "Hg (Oct 9, 4:20 AM)
Low39 °F (Oct 22, 4:20 AM)30% (Oct 9, 2:20 PM)29.71 "Hg (Oct 21, 7:20 PM)
Average56 °F80%29.99 "Hg
* Reported Oct 8 3:20 PM — Oct 23 3:50 PM, Friedrichshafen, Weather by CustomWeather, © 2014

Note: Actual official high and low records may vary slightly from our data, if they occured in-between our weather recording intervals... More about our weather records

Advertising

Friedrichshafen weather history for previous 24 hours

 ConditionsComfort  
Time TempWeatherWind HumidityBarometerVisibility
3:50 PM
Oct 23
48 °FMostly cloudy.6 mph66%30.24 "HgN/A
3:20 PM48 °FOvercast.6 mph66%30.24 "HgN/A
2:50 PM46 °FMore clouds than sun.8 mph71%30.27 "HgN/A
2:20 PM46 °FMore clouds than sun.7 mph71%30.27 "HgN/A
1:50 PM46 °FMostly cloudy.8 mph71%30.27 "HgN/A
1:20 PM46 °FSprinkles. Overcast.9 mph76%30.27 "HgN/A
12:50 PM46 °FSprinkles. Mostly cloudy.9 mph71%30.30 "HgN/A
12:20 PM46 °FDrizzle. Partly sunny.8 mph71%30.30 "HgN/A
11:50 AM46 °FOvercast.8 mph71%30.30 "HgN/A
11:20 AM45 °FOvercast.7 mph81%30.27 "HgN/A
10:50 AM45 °FMostly cloudy.5 mph76%30.27 "HgN/A
10:20 AM45 °FPartly sunny.5 mph76%30.27 "HgN/A
9:50 AM43 °FPartly sunny.6 mph81%30.27 "HgN/A
9:20 AM43 °FSprinkles. More clouds than sun.6 mph81%30.27 "HgN/A
8:50 AM45 °FLight rain. Overcast.1 mph81%30.27 "HgN/A
8:20 AM45 °FMostly cloudy.5 mph76%30.24 "HgN/A
7:50 AM45 °FMostly cloudy.5 mph76%30.24 "HgN/A
7:20 AM45 °FMostly cloudy.8 mph76%30.24 "HgN/A
6:50 AM45 °FMostly cloudy.8 mph76%30.24 "HgN/A
6:20 AM45 °FOvercast.7 mph76%30.21 "HgN/A
5:50 AM45 °FMostly cloudy.10 mph76%30.21 "HgN/A
5:20 AM45 °FMostly cloudy.9 mph76%30.21 "HgN/A
4:50 AM45 °FOvercast.9 mph76%30.21 "HgN/A
4:20 AM45 °FOvercast.10 mph76%30.21 "HgN/A
3:50 AM45 °FMostly cloudy.13 mph76%30.18 "HgN/A
3:20 AM45 °FOvercast.12 mph76%30.18 "HgN/A
2:50 AM45 °FMostly cloudy.10 mph76%30.18 "HgN/A
2:20 AM43 °FOvercast.12 mph81%30.18 "HgN/A
1:50 AM45 °FOvercast.12 mph76%30.15 "HgN/A
1:20 AM45 °FOvercast.10 mph76%30.15 "HgN/A
12:50 AM43 °FLight rain. Mostly cloudy.8 mph87%30.15 "HgN/A
12:20 AM43 °FLight rain. Mostly cloudy.5 mph87%30.15 "HgN/A
11:50 PM
Oct 22
45 °FLight rain. Mostly cloudy.7 mph76%30.15 "HgN/A
11:20 PM43 °FLight rain. Mostly cloudy.10 mph81%30.15 "HgN/A
10:50 PM43 °FLight rain. Mostly cloudy.9 mph87%30.15 "HgN/A
10:20 PM43 °FLight rain. Mostly cloudy.12 mph81%30.12 "HgN/A
9:50 PM43 °FLight rain. Mostly cloudy.9 mph81%30.12 "HgN/A
9:20 PM43 °FLight rain. Overcast.13 mph81%30.15 "HgN/A
8:50 PM43 °FLight rain. Overcast.8 mph81%30.12 "Hg6 mi
8:20 PM43 °FLight rain. Mostly cloudy.16 mph81%30.12 "Hg4 mi
7:50 PM43 °FLight rain. Mostly cloudy.16 mph76%30.12 "HgN/A
7:20 PM43 °FLight rain. Mostly cloudy.16 mph76%30.12 "HgN/A
6:50 PM43 °FSprinkles. Cloudy.15 mph76%30.12 "HgN/A
6:20 PM45 °FLight rain. More clouds than sun.15 mph71%30.12 "HgN/A
5:50 PM45 °FLight rain. Mostly cloudy.15 mph71%30.12 "HgN/A
5:20 PM43 °FLight rain. Mostly cloudy.15 mph76%30.12 "HgN/A
4:50 PM43 °FLight rain. Mostly cloudy.13 mph76%30.12 "HgN/A
4:20 PM43 °FLight rain. Mostly cloudy.15 mph76%30.12 "HgN/A
Weather by CustomWeather, © 2014

See weather overviewHow to use our weather pages